Location: Blue Sky Observatory
(43.1153°N, 70.9036°W)
Time: 14:30:02
(UTC-04:00)

Daily predictions for brighter satellites

Satellite Brightness Start Highest point End
(mag) Time Altitude Azimuth Time Altitude Azimuth Time Altitude Azimuth
Cosmos 1821 Rocket 4.0 19:48:18 10° S 19:54:19 63° E 20:00:20 10° NNE
Cosmos 1570 Rocket 4.4 19:49:23 10° S 19:54:24 44° ESE 19:59:23 10° NNE
Cosmos 1605 Rocket 4.5 19:51:34 10° SSE 19:57:22 39° E 20:03:08 10° NNE
Envisat 4.4 19:55:10 10° ESE 19:58:49 20° ENE 20:02:28 10° NNE
Meteor 1-11 Rocket 4.3 19:56:00 10° SSW 20:01:32 64° WNW 20:07:03 10° N
Helios 1B rocket 3.6 20:02:36 10° N 20:06:35 49° WNW 20:10:33 10° SSW
Cosmos 2219 4.5 20:02:58 10° NW 20:08:15 42° WSW 20:13:29 10° S
EO 1 Delta rocket 4.0 20:05:32 10° NNE 20:10:06 54° E 20:15:12 10° S
CZ-4B DEB 3.2 20:07:48 10° S 20:11:02 66° WSW 20:14:20 10° NNW
Iridium 4 Rocket 4.2 20:07:22 10° NNE 20:12:00 32° ENE 20:16:15 10° SE
DELTA 2 R/B (1) 3.8 20:09:00 10° W 20:14:30 61° S 20:19:39 12° ESE
Okean 2 3.5 20:16:16 10° N 20:20:28 81° W 20:24:35 10° S
Cosmos 1975 3.5 20:18:29 10° SSE 20:22:13 35° E 20:25:58 10° NNE
Meteor 2-4 Rocket 4.5 20:16:51 10° NNW 20:22:36 60° W 20:28:24 10° S
Cosmos 1697 Rocket 3.7 20:20:33 10° SSE 20:25:00 24° ESE 20:29:27 10° NE
Cosmos 2123 Rocket 4.0 20:18:49 10° N 20:25:02 81° E 20:31:12 10° S
NOSS 2-1 (D) 4.1 20:21:14 10° SW 20:25:04 58° NW 20:29:32 10° NNE
NOSS 2-1 (C) 4.1 20:22:14 10° SW 20:26:06 59° NW 20:30:35 10° NNE
Cosmos 2278 3.7 20:21:20 10° SSW 20:26:57 68° ESE 20:32:38 10° NNE
Lacrosse 5 rocket 1.2 20:27:31 10° NW 20:31:13 60° NE 20:33:40 19° ESE
H-2A R/B 3.2 20:29:22 16° ESE 20:31:33 24° ENE 20:34:52 10° NNE
ERS-1 Rocket 3.2 20:27:43 10° SE 20:32:31 50° ENE 20:37:22 10° N
ALOS 2.9 20:28:29 10° S 20:33:05 58° W 20:37:42 10° NNW
Cosmos 1626 Rocket 3.6 20:29:56 10° N 20:34:18 57° E 20:38:27 11° SSE
Cosmos 1898 Rocket 4.1 20:30:17 10° N 20:35:16 40° ENE 20:38:49 18° SE
Meteor 1-12 Rocket 4.3 20:31:05 10° S 20:36:42 63° E 20:42:29 10° NNE
H-2A R/B 3.6 20:35:36 10° S 20:39:21 52° W 20:43:13 10° NNW
Cosmos 1455 Rocket 3.4 20:35:13 10° SSW 20:39:31 69° W 20:43:52 10° N
Cosmos 2369 3.6 20:34:35 10° SSW 20:40:15 78° ESE 20:45:58 10° NNE
Cosmos 1461 2.9 20:37:37 10° NW 20:41:42 73° WSW 20:44:43 16° SSE
Cosmos 1602 Rocket 3.5 20:38:14 10° N 20:42:42 71° E 20:46:54 11° SSE
Cosmos 1980 Rocket 3.3 20:45:16 19° SE 20:47:07 22° E 20:51:26 10° NE
Cosmos 1153 Rocket 4.4 20:47:51 10° S 20:54:02 75° E 21:00:11 10° N
Cosmos 1939 Rocket 2.9 20:51:41 21° SSE 20:54:22 64° ENE 20:58:31 10° N
Cosmos 468 Rocket 4.2 20:51:07 10° S 20:55:56 44° ESE 21:00:48 10° NNE
Lacrosse 5 2.5 20:52:38 10° NW 20:57:31 46° NE 21:00:15 24° E
USA 215 4.1 20:57:32 15° E 21:02:32 40° NNE 21:08:32 10° NW
Cosmos 1814 Rocket 4.3 20:59:01 10° S 21:04:03 45° ESE 21:09:06 10° NNE
Cosmos 2084 3.5 21:00:10 10° NNW 21:04:11 61° NE 21:05:45 35° ESE
SPOT 5 3.3 21:02:06 27° SE 21:04:32 48° ENE 21:09:11 10° N
Cosmos 220 Rocket 4.1 21:03:09 10° NNW 21:07:22 72° WSW 21:09:49 24° S
Cosmos 1802 Rocket 4.3 21:02:58 17° SSE 21:07:39 48° E 21:13:47 10° NNE
MetOp-B 4.4 21:07:58 29° SE 21:10:22 49° ENE 21:15:31 10° N
Cosmos 2227 Rocket 3.1 21:07:56 10° NW 21:13:19 45° WSW 21:18:21 11° S
Cosmos 2263 Rocket 4.2 21:11:49 10° NNE 21:14:24 13° NE 21:16:34 11° ENE
Tiangong 1 0.8 21:13:16 10° W 21:16:22 85° S 21:16:25 84° SE
OTV 4 2.6 21:15:15 10° WSW 21:16:45 17° SW 21:16:45 17° SW
Cosmos 1606 Rocket 4.0 21:17:36 40° ESE 21:17:56 40° E 21:22:05 10° NNE
Cosmos 2322 Rocket 4.3 21:21:36 11° ENE 21:21:36 11° ENE 21:21:50 10° ENE
Cosmos 858 Rocket 4.4 21:15:22 10° NNW 21:20:41 86° ENE 21:23:07 33° SSE
Cosmos 1500 3.3 21:18:30 17° SSW 21:21:16 71° W 21:25:03 10° N
Cosmos 1656 3.6 21:15:57 10° SSW 21:21:35 87° WNW 21:27:11 10° NNE
RESURS DK-1 2.5 21:17:32 10° NNW 21:21:38 57° ENE 21:22:21 49° ESE
BREEZE-M TANK 2.9 21:13:48 10° WNW 21:23:45 72° SSW 21:24:54 44° SE
Cosmos 2298 Rocket 4.2 21:20:18 10° NNW 21:25:37 72° WSW 21:28:25 28° S
Cosmos 2016 Rocket 4.0 21:23:05 29° SSE 21:26:05 55° E 21:32:07 10° NNE
SL-19 R/B 4.5 21:22:52 10° NNE 21:28:07 43° E 21:28:54 41° ESE
Cosmos 2297 Rocket 3.0 21:23:36 10° NW 21:29:00 47° WSW 21:32:48 19° S
PSLV R/B 4.2 21:31:35 36° NNE 21:31:35 36° NNE 21:33:40 10° N
Cosmos 1340 2.6 21:31:15 10° N 21:34:56 68° ENE 21:34:56 68° ENE
Envisat 3.6 21:34:13 22° S 21:37:25 54° W 21:42:24 10° NNW
CZ-4 SHROUD 4.5 21:38:48 34° N 21:38:48 34° N 21:40:46 10° N
Cosmos 2173 Rocket 4.0 21:32:57 12° S 21:38:54 87° W 21:45:18 10° N
H-2A R/B 3.0 21:39:13 28° ENE 21:39:20 28° ENE 21:43:32 10° N
Milstar 3 Cent rocket 4.4 21:23:47 10° WSW 21:41:26 41° SSW 21:45:56 30° SSE
Cosmos 1937 Rocket 3.5 21:36:41 10° NNW 21:41:58 78° WSW 21:43:40 44° S
Cosmos 1726 Rocket 3.5 21:42:19 63° E 21:42:19 63° E 21:46:33 10° NNE
Terra 3.2 21:44:43 25° ENE 21:44:43 25° ENE 21:48:17 10° NNE
ASTEX 1 3.3 21:40:03 10° N 21:45:05 82° E 21:46:26 50° S
Cosmos 2098 Rocket 4.1 21:45:59 38° SSE 21:48:37 64° E 21:54:35 10° NNE
Cosmos 2100 Rocket 4.3 21:43:04 10° SSW 21:49:18 67° W 21:55:32 10° N
YAOGAN 6 2.8 21:49:35 69° WNW 21:49:35 69° WNW 21:53:05 10° NNW
OAO 2 Rocket 4.4 21:45:03 10° WSW 21:48:33 30° SSW 21:48:33 30° SSW
Cosmos 2061 Rocket 4.2 21:44:13 12° SSW 21:50:06 73° W 21:56:23 10° N
Cosmos 1864 Rocket 4.4 21:52:34 52° SE 21:53:40 60° E 21:59:40 10° NNE
Cosmos 1743 3.4 21:53:16 45° WSW 21:54:01 53° W 21:57:52 10° N
Tsikada Rocket 4.1 21:47:50 10° N 21:54:13 63° E 21:55:35 51° SE
Cosmos 1825 Rocket 4.0 21:50:10 10° NNW 21:54:31 59° W 21:55:22 49° SW
Cosmos 967 Rocket 4.4 21:48:56 10° NNW 21:55:19 78° ENE 21:56:50 54° SE
MetOp-A 4.4 21:55:02 40° SSW 21:56:51 65° WSW 22:02:11 10° NNW
Cosmos 990 Rocket 4.0 21:52:34 10° NNW 21:57:50 77° WSW 21:58:46 60° S
SPOT 1/Viking Rocket 3.4 21:57:13 64° SSE 21:58:03 87° ENE 22:03:18 10° NNW
DELTA 2 R/B (1) 4.2 21:55:25 10° W 22:00:24 39° SSW 22:00:24 39° SSW
USA 245 4.5 22:00:23 48° S 22:02:17 82° WSW 22:08:42 10° NNW
Cosmos 1953 Rocket 3.8 21:59:04 10° NNW 22:03:29 65° W 22:03:44 63° WSW
CZ-4B R/B 3.5 21:58:58 10° NNE 22:03:03 60° NE 22:03:03 60° NE
H-2A R/B 3.5 22:06:31 26° WSW 22:07:27 29° W 22:11:06 10° NW
Cosmos 1697 Rocket 3.5 22:03:08 10° SW 22:08:36 51° WNW 22:14:07 10° NNE
Lacrosse 5 rocket 3.6 22:07:55 10° W 22:09:24 14° WSW 22:09:24 14° WSW
SL-16 R/B 3.5 22:15:31 28° ENE 22:15:31 28° ENE 22:18:25 10° NE
Cosmos 1842 4.2 22:10:37 10° NNW 22:13:32 46° NNW 22:13:32 46° NNW
NOAA 11 4.2 22:15:11 63° SSW 22:15:57 72° WSW 22:21:26 10° NNW
Cosmos 1816 Rocket 4.4 22:14:22 10° N 22:20:48 79° E 22:21:26 71° SE
Cosmos 1758 Rocket 4.4 22:18:22 10° NNW 22:22:20 45° W 22:22:20 45° W
Cosmos 1125 Rocket 3.6 22:18:29 10° NNW 22:23:14 69° NNE 22:23:14 69° NNE
Cosmos 1725 Rocket 4.0 22:22:45 55° SSW 22:24:12 79° W 22:30:28 10° N
Cosmos 1763 Rocket 3.8 22:24:18 50° WSW 22:25:18 60° WNW 22:30:20 10° NNE
Cosmos 2228 4.2 22:29:02 39° N 22:29:02 39° N 22:31:48 10° N
Meteor 2-5 Rocket 4.2 22:23:53 10° N 22:29:09 50° ENE 22:29:09 50° ENE
Cosmos 1980 Rocket 2.8 22:26:51 20° SW 22:30:40 55° WNW 22:36:18 10° NNE
Meteor 1-15 Rocket 4.3 22:30:17 68° SW 22:30:59 77° W 22:36:54 10° N
ARGOS 3.6 22:30:52 51° WSW 22:31:20 53° W 22:36:37 10° NNW
Cosmos 2360 Rocket 4.5 22:35:19 12° NE 22:35:19 12° NE 22:35:48 10° NE
Lacrosse 5 3.1 22:35:48 10° WNW 22:39:26 33° WSW 22:39:26 33° WSW
BREEZE-M DEB (TANK) 4.3 22:10:51 10° WNW 22:41:32 86° NNE 22:43:29 57° ESE
Cosmos 2058 Rocket 4.4 22:44:37 36° WNW 22:44:37 36° WNW 22:48:39 10° N
USA 215 3.1 22:44:54 78° S 22:45:12 81° SW 22:51:47 10° NW
Cosmos 841 Rocket 4.4 22:45:04 41° W 22:46:03 46° WNW 22:51:06 10° N
Meteor 2-17 Rocket 4.4 22:48:05 80° WNW 22:48:05 80° WNW 22:54:05 10° N
BREEZE-M DEB (TANK) 4.4 22:39:50 10° SW 22:49:08 57° SW 22:49:08 57° SW
Cosmos 2233 Rocket 3.9 22:51:57 78° WNW 22:51:57 78° WNW 22:58:11 10° N
Cosmos 2263 Rocket 2.7 22:53:49 10° NNW 22:58:15 54° N 22:58:15 54° N
Cosmos 2322 Rocket 2.8 23:03:22 52° N 23:03:22 52° N 23:07:40 10° NNE
H-2A R/B 3.5 23:19:52 31° WNW 23:19:52 31° WNW 23:23:10 10° NNW
BREEZE-M DEB (TANK) 3.9 23:06:43 10° WNW 23:18:46 62° W 23:18:46 62° W
Terra 3.5 23:23:37 29° WNW 23:23:37 29° WNW 23:26:25 10° NNW
Cosmos 1464 Rocket 4.4 23:34:51 61° N 23:34:51 61° N 23:40:03 10° N
Cosmos 2278 Rocket 4.1 23:38:15 10° N 23:42:08 20° NE 23:42:08 20° NE
